星链-5595 (STARLINK-5595 )

导读

STARLINK-5595是美国太空探索技术公司(SpaceX)星链(Starlink)星座的卫星,于2023年3月3日发射。作为星链低轨互联网星座组成部分,它属于Starlink V1.5型号卫星,配备激光星间链路,可支持全球高速宽带互联网服务,能降低对地面基站依赖,扩展星链网络覆盖范围。星链计划旨在构建全球覆盖、大容量低时延天基通信系统。

基本信息
目录编号:
55765
目录名称:
STARLINK-5595
国际标识:
2023-028AA
轨道中心:
EARTH
卫星名称:
星链-5595
卫星全名:
星链-5595 (STARLINK-5595 )
卫星状态:
在轨 (已飞行1289 天)
发射日期:
2023-03-03 UTC
国别 :
美国 (US)
星等 :
--
该卫星已列入 空间交会检测服务 Space Conjunction Data Service (SCDS) ,当前飞行风险评估等级: 无高风险
轨道信息
数据来源 国际轨道数据
星历时间: 2026-09-12T09:06:57+0800
12小时前
查看轨道信息
半长轴: 6950.093km
偏心率: 0.000221
轨道倾角: 69.999°
近地点辐角 271.164°
升交点赤经 114.746°
平近点角 88.926°
近地点: 570.42km
远地点: 573.492km
周期: 96.105分钟
每日圈数: 14.983625
详细信息
固有亮度:
5
最大亮度:
2.5
卫星平台:
Starlink v1.5
覆盖范围:
全球
运营商:
太空探索技术公司
运营商所在国:
美国
制造商(研发单位):
太空探索技术公司
制造商所在国:
美国
使用方式:
暂无
卫星简介
星链(Starlink)计划是由太空探索技术公司(SpaceX)提出的一个巨型低轨卫星互联网星座项目,计划在2019年至2024年间在太空搭建由约1.2万颗卫星组成的“星链”网络,其中1584颗将部署在地球上空550千米处的近地轨道,并从2020年开始工作。该卫星仍在工作。
2D轨道图
3D轨道图
轨道高度分析图
轨道倾角分析图
轨道综合分析图
查看轨道综合分析图
交会数据列表
事件ID 空间交会对象 最接近时刻(TCA) 交会距离 交会风险概率(CRP) 交会风险指数(CRI) 操作
CDM_260913-014505-576506-597121
STRIX-5 (65971)
2026-09-13T
01:45:42+0000
0.570 km
远距离
8.592156E-5 中风险 0.74
CDM_260905-180003-590505-576522
2026-09-05T
18:00:58+0000
1.176 km
极远距离
1.27846E-5 中风险 0.57
CDM_260914-172305-194805-576521
OBJECT C (51948)
2026-09-14T
17:23:11+0000
2.943 km
极远距离
1.277345E-6 低风险 0.37
CDM_260914-220105-576506-857921
2026-09-14T
22:01:35+0000
2.779 km
极远距离
5.513693E-7 极低风险 0.3
与全量物体交会距离演化趋势
与全量物体交会风险概率演化趋势